User: anonymous   Login
Location: Sungai Anya
(2.6167°N, 114.0500°E)
Time: 10:08:29
(UTC+00:00)
Language:

NOAA 16 DEB - Orbit

View from above orbital plane
View from above orbital plane
View from above satellite
View from above satellite

Ground track
Ground track

The orbit data is extracted from the following two-line orbital elements,

1 41423U 00055LC  22228.68387699  .00001590  00000-0  78356-3 0  9993
2 41423  98.7427 305.9561 0012593 298.8577  61.1334 14.18929295337784
Epoch (UTC): 16 August 2022 16:24:46
Eccentricity: 0.0012593
inclination: 98.7427°
perigee height: 820 km
apogee height: 838 km
right ascension of ascending node: 305.9561°
argument of perigee: 298.8577°
revolutions per day: 14.18929295
mean anomaly at epoch: 61.1334°
orbit number at epoch: 33778

The dashed part of the orbit path shows where the satellite is in the earth's shadow,  

DLR